Ann Arbor, MI

8:55 AM EST on December 09, 2016 (GMT -0500)
Ann Arbor Municipal

Weather History for KARB - February, 2014

Change the Weather History Date:

Tuesday, February 18, 2014

  Actual Average Record
Temperature  
Mean Temperature 28 °F -  
Max Temperature 37 °F 32 °F 51 °F (2011)
Min Temperature 21 °F 17 °F -2 °F (2007)
Degree Days  
Heating Degree Days 36    
Moisture  
Dew Point 20 °F    
Average Humidity 77    
Maximum Humidity 92    
Minimum Humidity 66    
Precipitation  
Precipitation 0.00 in - - ()
Sea Level Pressure  
Sea Level Pressure 29.81 in    
Wind  
Wind Speed 13 mph (WSW)    
Max Wind Speed 20 mph    
Max Gust Speed 28 mph    
Visibility 6 miles    
Events Snow    
Averages and records for this station are not official NWS values.
T = Trace of Precipitation, MM = Missing Value Source: NWS Daily Summary

Daily Weather History Graph

Daily Weather History Graph

Search for Another Location

Airport or City:

Trip Planner

Search our weather history database for the weather conditions in past years. The results will help you decide how hot, cold, wet, or windy it might be!

Date:

Astronomy

Feb. 18, 2014 Rise Set
Actual Time 7:26 AM EST 6:11 PM EST
Civil Twilight 6:58 AM EST 6:39 PM EST
Nautical Twilight 6:25 AM EST 7:12 PM EST
Astronomical Twilight 5:53 AM EST 7:45 PM EST
Moon 10:09 PM EST (2/18) 8:54 AM EST (2/18)
Length of Visible Light 11h 41m
Length of Day
10h 44m
Waning Gibbous, 87% of the Moon is Illuminated
Feb 18
Waning Gibbous
Feb 22
Last Quarter
Mar 1
New
Mar 8
First Quarter
Mar 16
Full

Hourly Weather History & Observations

Time (EST) Temp. Windchill Dew Point Humidity Pressure Visibility Wind Dir Wind Speed Gust Speed Precip Events Conditions
12:13 AM 21.2 °F 13.6 °F 17.6 °F 86% 29.60 in 8.0 mi WSW 5.8 mph - N/A   Overcast
12:53 AM 21.0 °F 11.4 °F 19.0 °F 92% 29.66 in 9.0 mi WSW 8.1 mph - N/A   Overcast
1:34 AM 24.8 °F 11.5 °F 19.4 °F 80% 29.63 in 1.8 mi West 17.3 mph 26.5 mph 0.00 in Snow Light Snow
1:47 AM 24.8 °F 11.5 °F 19.4 °F 80% 29.64 in 2.5 mi West 17.3 mph - 0.00 in Snow Light Snow
1:48 AM 24.1 °F 10.6 °F 19.0 °F 81% 29.68 in 2.5 mi West 17.3 mph - 0.00 in Snow Light Snow
2:05 AM 23.0 °F 8.7 °F 19.4 °F 86% 29.66 in 1.8 mi West 18.4 mph 26.5 mph 0.00 in Snow Light Snow
2:12 AM 23.0 °F 8.3 °F 19.4 °F 86% 29.66 in 3.0 mi West 19.6 mph 26.5 mph 0.00 in Snow Light Snow
2:21 AM 23.0 °F 10.1 °F 17.6 °F 80% 29.67 in 4.0 mi West 15.0 mph 26.5 mph 0.00 in Snow Light Snow
2:41 AM 23.0 °F 8.7 °F 17.6 °F 80% 29.68 in 1.8 mi West 18.4 mph 26.5 mph 0.00 in Snow Light Snow
2:51 AM 23.0 °F 9.2 °F 17.6 °F 80% 29.69 in 2.5 mi West 17.3 mph 25.3 mph 0.00 in Snow Light Snow
2:53 AM 23.0 °F 9.6 °F 18.0 °F 81% 29.73 in 2.0 mi West 16.1 mph 25.3 mph 0.00 in Snow Light Snow
3:01 AM 23.0 °F 9.2 °F 17.6 °F 80% 29.70 in 1.8 mi West 17.3 mph 26.5 mph 0.00 in Snow Light Snow
3:10 AM 23.0 °F 8.7 °F 17.6 °F 80% 29.71 in 2.5 mi West 18.4 mph - 0.00 in Snow Light Snow
3:31 AM 23.0 °F 10.1 °F 17.6 °F 80% 29.72 in 1.5 mi West 15.0 mph - 0.00 in Snow Light Snow
3:53 AM 23.0 °F 10.6 °F 19.0 °F 85% 29.78 in 1.2 mi West 13.8 mph 24.2 mph 0.00 in Snow Light Snow
4:05 AM 23.0 °F 8.7 °F 17.6 °F 80% 29.75 in 1.5 mi West 18.4 mph 23.0 mph 0.00 in Snow Light Snow
4:12 AM 21.2 °F 6.8 °F 17.6 °F 86% 29.76 in 1.0 mi West 17.3 mph 23.0 mph 0.00 in Snow Light Snow
4:33 AM 21.2 °F 6.8 °F 17.6 °F 86% 29.77 in 1.5 mi WNW 17.3 mph 23.0 mph 0.00 in Snow Light Snow
4:53 AM 21.9 °F 7.3 °F 17.1 °F 82% 29.83 in 1.8 mi WNW 18.4 mph 27.6 mph 0.00 in Snow Light Snow
4:57 AM 21.2 °F 6.8 °F 17.6 °F 86% 29.80 in 3.0 mi WNW 17.3 mph 27.6 mph 0.00 in Snow Light Snow
5:19 AM 23.0 °F 10.6 °F 17.6 °F 80% 29.81 in 9.0 mi WNW 13.8 mph 21.9 mph 0.00 in   Overcast
5:53 AM 23.0 °F 10.6 °F 16.0 °F 74% 29.88 in 10.0 mi WNW 13.8 mph - 0.00 in   Overcast
6:01 AM 23.0 °F 11.1 °F 15.8 °F 74% 29.84 in 10.0 mi WNW 12.7 mph 23.0 mph N/A   Overcast
6:53 AM 21.9 °F 8.2 °F 16.0 °F 78% 29.91 in 10.0 mi West 16.1 mph 21.9 mph N/A   Mostly Cloudy
7:14 AM 21.2 °F 7.8 °F 15.8 °F 80% 29.89 in 10.0 mi West 15.0 mph - N/A   Scattered Clouds
7:53 AM 21.9 °F 11.0 °F 16.0 °F 78% 29.95 in 10.0 mi West 10.4 mph - N/A   Mostly Cloudy
8:11 AM 21.2 °F 10.9 °F 15.8 °F 80% 29.92 in 10.0 mi West 9.2 mph - N/A   Scattered Clouds
8:53 AM 21.9 °F 12.5 °F 17.1 °F 82% 29.99 in 9.0 mi West 8.1 mph - N/A   Mostly Cloudy
9:53 AM 26.1 °F 15.6 °F 18.0 °F 71% 30.01 in 10.0 mi West 11.5 mph - N/A   Overcast
10:53 AM 27.0 °F 16.7 °F 19.0 °F 72% 30.02 in 9.0 mi West 11.5 mph - N/A   Overcast
11:23 AM 26.6 °F 15.7 °F 19.4 °F 74% 29.99 in 9.0 mi WSW 12.7 mph 20.7 mph N/A   Scattered Clouds
11:53 AM 28.0 °F 18.1 °F 19.0 °F 69% 30.02 in 8.0 mi WSW 11.5 mph - N/A   Clear
12:53 PM 30.0 °F 21.1 °F 19.9 °F 66% 30.00 in 8.0 mi SSW 10.4 mph - N/A   Clear
1:53 PM 30.9 °F 22.8 °F 21.0 °F 67% 29.97 in 8.0 mi South 9.2 mph - N/A   Clear
2:53 PM 30.9 °F 22.8 °F 21.0 °F 67% 29.95 in 7.0 mi South 9.2 mph - N/A   Clear
3:53 PM 32.0 °F 22.5 °F 24.1 °F 73% 29.94 in 6.0 mi South 12.7 mph - N/A   Haze
4:53 PM 33.1 °F 25.5 °F 25.0 °F 72% 29.89 in 6.0 mi South 9.2 mph - N/A   Haze
5:53 PM 33.1 °F 28.7 °F 25.0 °F 72% 29.87 in 6.0 mi South 4.6 mph - N/A   Haze
6:53 PM 33.1 °F 28.7 °F 26.1 °F 75% 29.84 in 10.0 mi South 4.6 mph - N/A   Clear
7:53 PM 36.0 °F 29.0 °F 27.0 °F 70% 29.83 in 10.0 mi SSW 9.2 mph - N/A   Clear
8:53 PM 36.0 °F 30.3 °F 27.0 °F 70% 29.81 in 10.0 mi SSW 6.9 mph - N/A   Clear
9:53 PM 36.0 °F 29.6 °F 27.0 °F 70% 29.78 in 10.0 mi SSW 8.1 mph - N/A   Clear
10:53 PM 36.0 °F 29.6 °F 27.0 °F 70% 29.73 in 10.0 mi SSW 8.1 mph - N/A   Clear
11:53 PM 37.0 °F 31.0 °F 27.0 °F 67% 29.70 in 10.0 mi SW 8.1 mph - N/A   Clear